Location: Unspecified
(41.1637°N, 24.2901°E)
Time: 14:54:49
(UTC+01:00)

ISS - Pass Details

Date: 20 January 2021
Orbit: 418 x 421 km, 51.6° (Epoch: 27 January)

Event Time Altitude Azimuth Distance (km) Brightness Sun altitude
Rises 18:40:12 0° 260° (W) 2,364 1.4 -25.2°
Reaches altitude 10° 18:42:27 10° 271° (W) 1,503 0.1 -25.6°
Enters shadow 18:44:24 24° 300° (WNW) 909 -1.6 -26.0°
